Regional Weather Roundup
Issued by NWS

Home | Current Version | Previous Version | Graphics & Text | Print | Product List | Glossary On
Versions: 1 2 3 4 5 6 7 8 9 10 11 12 13 14 15 16 17 18 19 20 21 22 23 24 25 26 27 28 29 30 31 32 33 34 35 36 37 38 39 40 41 42 43 44 45 46 47 48 49 50
000
ASUS43 KLOT 251812
RWRIL

ILLINOIS REGIONAL WEATHER ROUNDUP
NATIONAL WEATHER SERVICE CHICAGO/ROMEOVILLE IL
100 PM CDT SAT APR 25 2015

NOTE: "FAIR" INDICATES FEW OR NO CLOUDS BELOW 12,000 FEET WITH NO
SIGNIFICANT WEATHER AND/OR OBSTRUCTIONS TO VISIBILITY.

* THESE STATIONS ARE NOT UNDER NWS QUALITY CONTROL. THEY ALSO MAY NOT
  REPORT WEATHER SUCH AS PRECIPITATION OR FOG.

ILZ001-002-007-009-015-016-024-251900-
NORTHWEST ILLINOIS

CITY           SKY/WX    TMP DP  RH WIND       PRES   REMARKS
MOLINE         CLOUDY    47  43  86 E32G40    29.58F
6HR MIN TEMP:  43; 6HR MAX TEMP:  47; 6HR PCP:  0.22;

STERLING*      CLOUDY    46  43  87 NE22G28   29.70F
SAVANNA*       CLOUDY    49  44  84 E23G29    29.72F HAZE
$$

ILZ003-004-008-010-011-017-018-251900-
NORTH CENTRAL ILLINOIS

CITY           SKY/WX    TMP DP  RH WIND       PRES   REMARKS
ROCKFORD       LGT RAIN  46  40  79 E13       29.80S
6HR MIN TEMP:  44; 6HR MAX TEMP:  47; 6HR PCP:  0.02;

FREEPORT*      CLOUDY    45  38  79 E17       29.79S
ROCHELLE*      LGT RAIN  44  43  95 NE17      29.74F
DE KALB*       LGT RAIN  43  42  95 E14       29.77F
PERU*          LGT RAIN  46  45  97 E25G31    29.66F
$$

ILZ005-006-012>014-019>023-251900-
NORTHEAST ILLINOIS

CITY           SKY/WX    TMP DP  RH WIND       PRES   REMARKS
CHICAGO-OHARE  LGT RAIN  44  39  82 E9        29.80R
6HR MIN TEMP:  43; 6HR MAX TEMP:  44; 6HR PCP:  0.09;

CHICAGO-MIDWAY LGT RAIN  46  41  82 E9        29.80R
6HR MIN TEMP:  45; 6HR MAX TEMP:  47; 6HR PCP:  0.24;

AURORA         LGT RAIN  46  42  86 NE14      29.76F FOG
6HR MIN TEMP:  44; 6HR MAX TEMP:  46; 6HR PCP:  0.35;

LANSING*       RAIN      44  40  87 CALM      29.80R
JOLIET*        LGT RAIN  46  44  93 NE12G20   29.74F
WAUKEGAN       CLOUDY    42  38  85 E12       29.81R
6HR MIN TEMP:  40; 6HR MAX TEMP:  43;

DUPAGE AIRPORT RAIN      43  40  89 NE12      29.78S FOG
6HR MIN TEMP:  43; 6HR MAX TEMP:  44; 6HR PCP:  0.23;

KANKAKEE*      LGT RAIN  44  43  97 E16       29.71F
WHEELING       LGT RAIN  43  39  86 E5        29.83R
6HR MIN TEMP:  42; 6HR MAX TEMP:  44; 6HR PCP:  0.04;

MORRIS*        LGT RAIN  45  43  93 E15       29.70F
ROMEOVILLE*    HVY RAIN  45  42  91 E15       29.76F
NORTHERLY ISL    N/A     43  39  86 NE9         N/A
$$

LMZ740>746-251900-
SOUTHERN LAKE MICHIGAN

STATION/POSITION SKY/WX   TEMP    WIND        PRES    VSBY  WAVE
                          AIR SEA DIR/SP/G                  HT/PER
                          (F)     (DEG/KT/KT) (MB)    (MI)  (FT/S)
HARRISON CRIB              41      60/ 16/ 18   N/A
BURNHAM HARBOR             44      60/  7/ 15   N/A
CALUMET HARBOR             43      50/ 10/ 14   N/A
BURNS HARBOR               45     100/ 10/ 16 1008.8R
MICHIGAN CITY              45      90/ 15/ 18   N/A
MICHIGAN CITY 6N           45 44  110/ 14/ 17   N/A           2/ 4
$$

ILZ025>027-034>036-040-047-049-050-058-095>099-251900-
WEST-CENTRAL ILLINOIS

CITY           SKY/WX    TMP DP  RH WIND       PRES   REMARKS
QUINCY         CLOUDY    55  51  86 E16       29.52F
GALESBURG*     CLOUDY    47  44  91 E17       29.61R
MACOMB*        CLOUDY    52  51  95 E20       29.59F
JACKSONVILLE*  CLOUDY    56  53  88 E17       29.54F
PITTSFIELD*    CLOUDY    53  51  94 E10G17    29.54S FOG
$$

ILZ028>032-037-038-041>044-048-051>054-059>061-251900-
CENTRAL ILLINOIS

CITY           SKY/WX    TMP DP  RH WIND       PRES   REMARKS
PONTIAC        LGT RAIN  46  45  97 E23G29    29.66F
BLOOMINGTON    LGT RAIN  46  45  97 E23G33    29.62F
DECATUR        CLOUDY    53  51  93 E22G29    29.57F
PEORIA         CLOUDY    50  45  83 E14       29.60F
6HR MIN TEMP:  48; 6HR MAX TEMP:  50; 6HR PCP:  0.87;

LACON*         LGT RAIN  45  43  93 E26       29.59F
LINCOLN*       CLOUDY    53  49  87 E16G24    29.57F
SPRINGFIELD    CLOUDY    55  50  83 E14       29.56F
6HR MIN TEMP:  51; 6HR MAX TEMP:  56; 6HR PCP:  0.35;

TAYLORVILLE    CLOUDY    52  50  93 E13G18    29.55F FOG
$$

ILZ033-039-045-046-055>057-062-063-251900-
EAST-CENTRAL ILLINOIS

CITY           SKY/WX    TMP DP  RH WIND       PRES   REMARKS
CHAMPAIGN      LGT RAIN  50  48  93 E16       29.61F FOG
DANVILLE*      LGT RAIN  46  44  96 NE17G24   29.61F
RANTOUL*       LGT RAIN  48  46  95 E22       29.63F
MATTOON        LGT RAIN  51  50  96 NE12      29.57F FOG
PARIS*         CLOUDY    49  48  97 NE9G16    29.63R FOG
$$

ILZ079-100>102-251900-
SOUTHWEST ILLINOIS

CITY           SKY/WX    TMP DP  RH WIND       PRES   REMARKS
ALTON          CLOUDY    64  59  82 S8        29.49F
BELLEVILLE     CLOUDY    67  63  86 VRB2      29.48F
CAHOKIA*       PTSUNNY   68  59  73 S8        29.47F
SPARTA*        CLOUDY    66  59  80 SW5       29.51F
$$

ILZ064>066-069>071-074>076-080>082-084>086-088>090-092>094-251900-
SOUTH-CENTRAL ILLINOIS

CITY           SKY/WX    TMP DP  RH WIND       PRES   REMARKS
CARBONDALE     CLOUDY    70  58  65 SW16G24   29.49F
6HR MIN TEMP:  56; 6HR MAX TEMP:  70;

CAIRO*         PTSUNNY   71  61  70 SW14G21   29.53F
EFFINGHAM*     FOG       55  53  93 NE6       29.55F VSB 1
MARION         CLOUDY    70  59  68 S17       29.55S
MT. VERNON     CLOUDY    66  57  72 SW8       29.51F
CENTRALIA*     CLOUDY    69  57  65 SW14      29.50F
SALEM*         CLOUDY    67  60  77 S7        29.50F
METROPOLIS*    PTSUNNY   73  60  65 SW13G18   29.52F
$$

ILZ067-068-072-073-078-083-087-091-251900-
SOUTHEAST ILLINOIS

CITY           SKY/WX    TMP DP  RH WIND       PRES   REMARKS
LAWRENCEVILLE  FOG       56  55  97 E8        29.55F VSB 1
FLORA*         CLOUDY    58  57  95 CALM      29.52F FOG
FAIRFIELD*     CLOUDY    64  59  82 CALM      29.50F
HARRISBURG*    CLOUDY    68  59  74 SW15G22   29.52F
ROBINSON*      CLOUDY    53  53  98 E7        29.57F FOG
CARMI*         CLOUDY    67  55  66 SW10      29.51F
$$

ABBREVIATIONS USED IN REMARKS
   TC - TEMPERATURE IN CELSIUS
  WCI - WIND CHILL INDEX
   HX - HEAT INDEX
  VSB - VISIBILITY
$$




USA.gov is the U.S. government's official web portal to all federal, state and local government web resources and services.